Find Starlink 34451

NORAD ID: 64433 Int'l Des: 2025-129 Owner: SPXS Country: US Constellation: starlink operational
LEOCIRCULAR

Live Position

Loading 3D Globe...

About Starlink 34451

Description loading...

Upcoming Passes

Passes for default location (London). Set your location on the main map for personalized predictions.

Altitude History

Loading altitude history...

Two-Line Element Set

1 64433U 25129X 26107.07735052 -.00023823 00000-0 -19719-2 0 9993
2 64433 70.0031 337.8113 0007889 305.9808 54.0619 14.98767136 46977
Epoch: Apr 17, 2026 • Age: 12 hours

Current Status

Altitude 576.4 km
Velocity 7.57 km/s
Sub-Earth Point 0.05°N, 102.78°E
Launch Date Jun 17, 2025
Age 0.8 years
Type internet

Technical Details

Classification Payload
Mass 575.00 kg
Dry Mass 530.00 kg
Total Mass 575.00 kg
Length 0.30 m
Diameter 4.10 m
Span 29.00 m
Shape Box + pan
Manufacturer SPXS
Bus Type Starlink V2MO
Phase Status In Orbit
Owner/State SPXS/US

Most Searched